contact:dominique.lefevre@mio.osupytheas.fr, maurice.libes@osupytheas.fr, didier.mallarino@osupytheas.fr
Project:EMSO http://www.emso-fr.org/EMSO-France
Depth: 2436.0 m
Title:EMSO Ligure Ouest : Data MII capteur CSTAR
DateTime,Latitude,Longitude,Instrument_Serial,Reference_Counts,Signal_Counts,Corrected_Signal_raw_counts,Calculated_Beam_c_inverse_meters,Internal_thermistor_counts
DateTime,Latitude,Longitude,Instrument_Serial,Reference_Counts,Signal_Counts,Corrected_Signal_raw_counts,Calculated_Beam_c_inverse_meters,Internal_thermistor_counts
2020-04-12T00:02:45,42.805,6.029,CST-1368DR,6479,9082,15192,0.110,551
2020-04-12T00:05:47,42.805,6.029,CST-1368DR,6480,9080,15187,0.111,551
2020-04-12T00:08:48,42.805,6.029,CST-1368DR,6479,9081,15191,0.110,551
2020-04-12T00:11:50,42.805,6.029,CST-1368DR,6479,9081,15191,0.110,551
2020-04-12T00:14:52,42.805,6.029,CST-1368DR,6479,9081,15190,0.111,551
2020-04-12T00:17:53,42.805,6.029,CST-1368DR,6479,9082,15192,0.110,551
2020-04-12T00:20:55,42.805,6.029,CST-1368DR,6479,9082,15192,0.110,551
2020-04-12T00:23:57,42.805,6.029,CST-1368DR,6479,9079,15188,0.111,551
2020-04-12T00:26:58,42.805,6.029,CST-1368DR,6479,9082,15192,0.110,551
2020-04-12T00:30:00,42.805,6.029,CST-1368DR,6479,9081,15191,0.110,551
2020-04-12T00:33:02,42.805,6.029,CST-1368DR,6479,9082,15193,0.110,551
2020-04-12T00:36:03,42.805,6.029,CST-1368DR,6479,9082,15192,0.110,551
2020-04-12T00:39:05,42.805,6.029,CST-1368DR,6479,9079,15186,0.112,551
2020-04-12T00:42:07,42.805,6.029,CST-1368DR,6479,9082,15192,0.110,551
2020-04-12T00:45:09,42.805,6.029,CST-1368DR,6479,9081,15191,0.110,551
2020-04-12T00:48:10,42.805,6.029,CST-1368DR,6479,9082,15192,0.110,551
2020-04-12T00:51:12,42.805,6.029,CST-1368DR,6479,9081,15191,0.110,551
2020-04-12T00:54:14,42.805,6.029,CST-1368DR,6479,9080,15189,0.111,551
2020-04-12T00:57:15,42.805,6.029,CST-1368DR,6479,9081,15190,0.111,551
2020-04-12T01:00:17,42.805,6.029,CST-1368DR,6479,9080,15189,0.111,551
2020-04-12T01:03:19,42.805,6.029,CST-1368DR,6479,9080,15189,0.111,551
2020-04-12T01:06:20,42.805,6.029,CST-1368DR,6479,9081,15191,0.110,551
2020-04-12T01:09:22,42.805,6.029,CST-1368DR,6479,9081,15191,0.110,551
2020-04-12T01:12:24,42.805,6.029,CST-1368DR,6479,9081,15191,0.110,551
2020-04-12T01:15:26,42.805,6.029,CST-1368DR,6479,9081,15191,0.110,551
2020-04-12T01:18:27,42.805,6.029,CST-1368DR,6479,9081,15191,0.110,551
2020-04-12T01:21:29,42.805,6.029,CST-1368DR,6479,9081,15190,0.111,551
2020-04-12T01:24:31,42.805,6.029,CST-1368DR,6479,9081,15190,0.111,551
2020-04-12T01:27:32,42.805,6.029,CST-1368DR,6479,9081,15190,0.111,551
2020-04-12T01:30:34,42.805,6.029,CST-1368DR,6479,9081,15191,0.110,551
2020-04-12T01:33:36,42.805,6.029,CST-1368DR,6479,9081,15191,0.110,551
2020-04-12T01:36:37,42.805,6.029,CST-1368DR,6479,9081,15190,0.111,551
2020-04-12T01:39:39,42.805,6.029,CST-1368DR,6479,9072,15175,0.115,551
2020-04-12T01:42:41,42.805,6.029,CST-1368DR,6479,9082,15192,0.110,551
2020-04-12T01:45:43,42.805,6.029,CST-1368DR,6479,9081,15191,0.110,551
2020-04-12T01:48:44,42.805,6.029,CST-1368DR,6479,9081,15190,0.111,551
2020-04-12T01:51:46,42.805,6.029,CST-1368DR,6479,9081,15190,0.111,551
2020-04-12T01:54:48,42.805,6.029,CST-1368DR,6479,9082,15192,0.110,551
2020-04-12T01:57:49,42.805,6.029,CST-1368DR,6479,9082,15192,0.110,551
2020-04-12T02:00:51,42.805,6.029,CST-1368DR,6479,9081,15191,0.110,551
2020-04-12T02:03:53,42.805,6.029,CST-1368DR,6479,9082,15192,0.110,551
2020-04-12T02:06:55,42.805,6.029,CST-1368DR,6479,9081,15190,0.111,551
2020-04-12T02:09:56,42.805,6.029,CST-1368DR,6479,9081,15191,0.110,551
2020-04-12T02:12:58,42.805,6.029,CST-1368DR,6479,9082,15193,0.110,551
2020-04-12T02:16:00,42.805,6.029,CST-1368DR,6479,9081,15190,0.111,551
2020-04-12T02:19:02,42.805,6.029,CST-1368DR,6479,9082,15192,0.110,551
2020-04-12T02:22:03,42.805,6.029,CST-1368DR,6479,9082,15192,0.110,551
2020-04-12T02:25:05,42.805,6.029,CST-1368DR,6479,9082,15192,0.110,551
2020-04-12T02:28:07,42.805,6.029,CST-1368DR,6479,9082,15192,0.110,551
2020-04-12T02:31:08,42.805,6.029,CST-1368DR,6479,9081,15191,0.110,551
2020-04-12T02:34:10,42.805,6.029,CST-1368DR,6479,9081,15191,0.110,551
2020-04-12T02:37:12,42.805,6.029,CST-1368DR,6479,9081,15191,0.110,551
2020-04-12T02:40:13,42.805,6.029,CST-1368DR,6479,9081,15191,0.110,551
2020-04-12T02:43:15,42.805,6.029,CST-1368DR,6479,9081,15191,0.110,551
2020-04-12T02:46:17,42.805,6.029,CST-1368DR,6479,9082,15192,0.110,551
2020-04-12T02:49:18,42.805,6.029,CST-1368DR,6479,9081,15191,0.110,551
2020-04-12T02:52:20,42.805,6.029,CST-1368DR,6479,9082,15193,0.110,551
2020-04-12T02:55:22,42.805,6.029,CST-1368DR,6479,9079,15188,0.111,551
2020-04-12T02:58:23,42.805,6.029,CST-1368DR,6479,9080,15189,0.111,551
2020-04-12T03:01:25,42.805,6.029,CST-1368DR,6479,9081,15191,0.110,551
2020-04-12T03:04:27,42.805,6.029,CST-1368DR,6479,9082,15192,0.110,550
2020-04-12T03:07:29,42.805,6.029,CST-1368DR,6479,9081,15190,0.111,551
2020-04-12T03:10:30,42.805,6.029,CST-1368DR,6479,9082,15192,0.110,551
2020-04-12T03:13:32,42.805,6.029,CST-1368DR,6479,9080,15189,0.111,551
2020-04-12T03:16:34,42.805,6.029,CST-1368DR,6479,9082,15192,0.110,551
2020-04-12T03:19:36,42.805,6.029,CST-1368DR,6479,9080,15189,0.111,551
2020-04-12T03:22:37,42.805,6.029,CST-1368DR,6479,9081,15191,0.110,551
2020-04-12T03:25:39,42.805,6.029,CST-1368DR,6479,9081,15191,0.110,551
2020-04-12T03:28:41,42.805,6.029,CST-1368DR,6479,9081,15190,0.111,551
2020-04-12T03:31:42,42.805,6.029,CST-1368DR,6479,9080,15188,0.111,551
2020-04-12T03:34:44,42.805,6.029,CST-1368DR,6479,9082,15192,0.110,551
2020-04-12T03:37:46,42.805,6.029,CST-1368DR,6479,9081,15191,0.110,551
2020-04-12T03:40:48,42.805,6.029,CST-1368DR,6479,9081,15190,0.111,551
2020-04-12T03:43:49,42.805,6.029,CST-1368DR,6479,9081,15191,0.110,551
2020-04-12T03:46:51,42.805,6.029,CST-1368DR,6479,9081,15191,0.110,551
2020-04-12T03:49:53,42.805,6.029,CST-1368DR,6479,9080,15189,0.111,551
2020-04-12T03:52:54,42.805,6.029,CST-1368DR,6479,9082,15192,0.110,551
2020-04-12T03:55:56,42.805,6.029,CST-1368DR,6479,9081,15190,0.111,551
2020-04-12T03:58:58,42.805,6.029,CST-1368DR,6479,9083,15193,0.110,551
2020-04-12T04:01:59,42.805,6.029,CST-1368DR,6479,9083,15194,0.110,551
2020-04-12T04:05:01,42.805,6.029,CST-1368DR,6479,9083,15193,0.110,551
2020-04-12T04:08:03,42.805,6.029,CST-1368DR,6479,9083,15193,0.110,551
2020-04-12T04:11:04,42.805,6.029,CST-1368DR,6479,9082,15193,0.110,551
2020-04-12T04:14:06,42.805,6.029,CST-1368DR,6479,9083,15193,0.110,551
2020-04-12T04:17:08,42.805,6.029,CST-1368DR,6479,9081,15191,0.110,551
2020-04-12T04:20:09,42.805,6.029,CST-1368DR,6479,9083,15194,0.110,551
2020-04-12T04:23:11,42.805,6.029,CST-1368DR,6479,9083,15194,0.110,551
2020-04-12T04:26:13,42.805,6.029,CST-1368DR,6478,9083,15196,0.109,551
2020-04-12T04:29:15,42.805,6.029,CST-1368DR,6478,9082,15194,0.110,551
2020-04-12T04:32:16,42.805,6.029,CST-1368DR,6478,9081,15193,0.110,551
2020-04-12T04:35:18,42.805,6.029,CST-1368DR,6479,9083,15193,0.110,551
2020-04-12T04:38:20,42.805,6.029,CST-1368DR,6479,9080,15188,0.111,551
2020-04-12T04:41:21,42.805,6.029,CST-1368DR,6478,9082,15195,0.109,550
2020-04-12T04:44:23,42.805,6.029,CST-1368DR,6479,9082,15192,0.110,551
2020-04-12T04:47:25,42.805,6.029,CST-1368DR,6478,9083,15195,0.109,551
2020-04-12T04:50:26,42.805,6.029,CST-1368DR,6478,9082,15195,0.109,551
2020-04-12T04:53:28,42.805,6.029,CST-1368DR,6479,9083,15193,0.110,551
2020-04-12T04:56:30,42.805,6.029,CST-1368DR,6478,9083,15195,0.109,551
2020-04-12T04:59:31,42.805,6.029,CST-1368DR,6478,9083,15196,0.109,551
2020-04-12T05:02:33,42.805,6.029,CST-1368DR,6478,9083,15195,0.109,551
2020-04-12T05:05:35,42.805,6.029,CST-1368DR,6478,9082,15194,0.110,551
2020-04-12T05:08:36,42.805,6.029,CST-1368DR,6478,9083,15196,0.109,551
2020-04-12T05:11:38,42.805,6.029,CST-1368DR,6478,9082,15195,0.109,551
2020-04-12T05:14:40,42.805,6.029,CST-1368DR,6478,9080,15191,0.110,551
2020-04-12T05:17:41,42.805,6.029,CST-1368DR,6478,9083,15195,0.109,551
2020-04-12T05:20:43,42.805,6.029,CST-1368DR,6478,9082,15194,0.110,551
2020-04-12T05:23:45,42.805,6.029,CST-1368DR,6478,9081,15193,0.110,551
2020-04-12T05:26:47,42.805,6.029,CST-1368DR,6478,9082,15195,0.109,551
2020-04-12T05:29:48,42.805,6.029,CST-1368DR,6478,9083,15196,0.109,551
2020-04-12T05:32:50,42.805,6.029,CST-1368DR,6478,9082,15195,0.109,551
2020-04-12T05:35:52,42.805,6.029,CST-1368DR,6478,9082,15195,0.109,551
2020-04-12T05:38:53,42.805,6.029,CST-1368DR,6478,9083,15195,0.109,551
2020-04-12T05:41:55,42.805,6.029,CST-1368DR,6478,9082,15195,0.109,550
2020-04-12T05:44:57,42.805,6.029,CST-1368DR,6478,9080,15191,0.110,551
2020-04-12T05:47:58,42.805,6.029,CST-1368DR,6478,9082,15194,0.110,551
2020-04-12T05:51:00,42.805,6.029,CST-1368DR,6478,9082,15194,0.110,551
2020-04-12T05:54:02,42.805,6.029,CST-1368DR,6478,9082,15195,0.109,551
2020-04-12T05:57:03,42.805,6.029,CST-1368DR,6478,9083,15195,0.109,551
2020-04-12T06:00:05,42.805,6.029,CST-1368DR,6478,9082,15194,0.110,551
2020-04-12T06:03:07,42.805,6.029,CST-1368DR,6478,9083,15195,0.109,551
2020-04-12T06:06:09,42.805,6.029,CST-1368DR,6478,9082,15194,0.110,551
2020-04-12T06:09:10,42.805,6.029,CST-1368DR,6478,9081,15193,0.110,551
2020-04-12T06:12:12,42.805,6.029,CST-1368DR,6478,9083,15195,0.109,551
2020-04-12T06:15:14,42.805,6.029,CST-1368DR,6478,9081,15193,0.110,551
2020-04-12T06:18:15,42.805,6.029,CST-1368DR,6478,9082,15194,0.110,551
2020-04-12T06:21:17,42.805,6.029,CST-1368DR,6478,9081,15193,0.110,551
2020-04-12T06:24:19,42.805,6.029,CST-1368DR,6478,9081,15193,0.110,551
2020-04-12T06:27:20,42.805,6.029,CST-1368DR,6478,9083,15195,0.109,551
2020-04-12T06:30:22,42.805,6.029,CST-1368DR,6478,9082,15194,0.110,551
2020-04-12T06:33:24,42.805,6.029,CST-1368DR,6478,9082,15195,0.109,551
2020-04-12T06:36:26,42.805,6.029,CST-1368DR,6478,9082,15195,0.109,551
2020-04-12T06:39:28,42.805,6.029,CST-1368DR,6478,9083,15195,0.109,551
2020-04-12T06:42:30,42.805,6.029,CST-1368DR,6478,9082,15194,0.110,551
2020-04-12T06:45:31,42.805,6.029,CST-1368DR,6478,9082,15194,0.110,551
2020-04-12T06:48:33,42.805,6.029,CST-1368DR,6478,9082,15194,0.110,551
2020-04-12T06:51:35,42.805,6.029,CST-1368DR,6478,9081,15192,0.110,551
2020-04-12T06:54:36,42.805,6.029,CST-1368DR,6478,9082,15194,0.110,551
2020-04-12T06:57:38,42.805,6.029,CST-1368DR,6478,9080,15190,0.111,551
2020-04-12T07:00:40,42.805,6.029,CST-1368DR,6478,9081,15193,0.110,551
2020-04-12T07:03:42,42.805,6.029,CST-1368DR,6478,9082,15194,0.110,551
2020-04-12T07:06:43,42.805,6.029,CST-1368DR,6478,9082,15194,0.110,551
2020-04-12T07:09:45,42.805,6.029,CST-1368DR,6478,9083,15195,0.109,551
2020-04-12T07:12:47,42.805,6.029,CST-1368DR,6478,9082,15194,0.110,551
2020-04-12T07:15:49,42.805,6.029,CST-1368DR,6478,9082,15195,0.109,551
2020-04-12T07:18:50,42.805,6.029,CST-1368DR,6478,9081,15192,0.110,551
2020-04-12T07:21:52,42.805,6.029,CST-1368DR,6478,9082,15194,0.110,551
2020-04-12T07:24:54,42.805,6.029,CST-1368DR,6478,9082,15194,0.110,551
2020-04-12T07:27:55,42.805,6.029,CST-1368DR,6478,9081,15192,0.110,551
2020-04-12T07:30:57,42.805,6.029,CST-1368DR,6478,9081,15193,0.110,551
2020-04-12T07:33:59,42.805,6.029,CST-1368DR,6478,9082,15194,0.110,551
2020-04-12T07:37:01,42.805,6.029,CST-1368DR,6478,9081,15192,0.110,551
2020-04-12T07:40:03,42.805,6.029,CST-1368DR,6478,9080,15190,0.111,551
2020-04-12T07:43:04,42.805,6.029,CST-1368DR,6478,9081,15192,0.110,551
2020-04-12T07:46:06,42.805,6.029,CST-1368DR,6478,9081,15192,0.110,551
2020-04-12T07:49:08,42.805,6.029,CST-1368DR,6478,9080,15191,0.110,551
2020-04-12T07:52:09,42.805,6.029,CST-1368DR,6478,9081,15192,0.110,551
2020-04-12T07:55:11,42.805,6.029,CST-1368DR,6478,9080,15191,0.110,551
2020-04-12T07:58:13,42.805,6.029,CST-1368DR,6478,9080,15191,0.110,551
2020-04-12T08:01:14,42.805,6.029,CST-1368DR,6478,9081,15192,0.110,551
2020-04-12T08:04:16,42.805,6.029,CST-1368DR,6478,9080,15191,0.110,551
2020-04-12T08:07:18,42.805,6.029,CST-1368DR,6478,9081,15192,0.110,551
2020-04-12T08:10:20,42.805,6.029,CST-1368DR,6478,9082,15194,0.110,550
2020-04-12T08:13:21,42.805,6.029,CST-1368DR,6478,9078,15187,0.111,551
2020-04-12T08:16:23,42.805,6.029,CST-1368DR,6478,9079,15190,0.111,551
2020-04-12T08:19:25,42.805,6.029,CST-1368DR,6478,9081,15192,0.110,551
2020-04-12T08:22:26,42.805,6.029,CST-1368DR,6478,9081,15192,0.110,551
2020-04-12T08:25:28,42.805,6.029,CST-1368DR,6478,9079,15189,0.111,551
2020-04-12T08:28:30,42.805,6.029,CST-1368DR,6478,9080,15191,0.110,551
2020-04-12T08:31:31,42.805,6.029,CST-1368DR,6478,9080,15191,0.110,551
2020-04-12T08:34:33,42.805,6.029,CST-1368DR,6478,9081,15192,0.110,551
2020-04-12T08:37:35,42.805,6.029,CST-1368DR,6478,9079,15189,0.111,551
2020-04-12T08:40:36,42.805,6.029,CST-1368DR,6478,9080,15191,0.110,551
2020-04-12T08:43:38,42.805,6.029,CST-1368DR,6478,9080,15191,0.110,551
2020-04-12T08:46:40,42.805,6.029,CST-1368DR,6478,9079,15189,0.111,551
2020-04-12T08:49:41,42.805,6.029,CST-1368DR,6478,9080,15190,0.111,551
2020-04-12T08:52:43,42.805,6.029,CST-1368DR,6478,9079,15189,0.111,551
2020-04-12T08:55:45,42.805,6.029,CST-1368DR,6478,9079,15190,0.111,551
2020-04-12T08:58:47,42.805,6.029,CST-1368DR,6478,9079,15189,0.111,551
2020-04-12T09:01:48,42.805,6.029,CST-1368DR,6478,9079,15190,0.111,551
2020-04-12T09:04:50,42.805,6.029,CST-1368DR,6478,9079,15190,0.111,550
2020-04-12T09:07:52,42.805,6.029,CST-1368DR,6478,9080,15191,0.110,551
2020-04-12T09:10:53,42.805,6.029,CST-1368DR,6478,9079,15189,0.111,551
2020-04-12T09:13:55,42.805,6.029,CST-1368DR,6478,9080,15190,0.111,551
2020-04-12T09:16:57,42.805,6.029,CST-1368DR,6478,9079,15189,0.111,551
2020-04-12T09:19:58,42.805,6.029,CST-1368DR,6478,9080,15190,0.111,550
2020-04-12T09:23:00,42.805,6.029,CST-1368DR,6478,9079,15189,0.111,551
2020-04-12T09:26:02,42.805,6.029,CST-1368DR,6478,9079,15190,0.111,551
2020-04-12T09:29:03,42.805,6.029,CST-1368DR,6478,9079,15189,0.111,551
2020-04-12T09:32:05,42.805,6.029,CST-1368DR,6477,9080,15192,0.110,550
2020-04-12T09:35:07,42.805,6.029,CST-1368DR,6478,9079,15189,0.111,551
2020-04-12T09:38:09,42.805,6.029,CST-1368DR,6478,9079,15189,0.111,551
2020-04-12T09:41:10,42.805,6.029,CST-1368DR,6478,9078,15188,0.111,551
2020-04-12T09:44:12,42.805,6.029,CST-1368DR,6477,9079,15192,0.110,551
2020-04-12T09:47:14,42.805,6.029,CST-1368DR,6477,9079,15192,0.110,551
2020-04-12T09:50:15,42.805,6.029,CST-1368DR,6478,9079,15189,0.111,551
2020-04-12T09:53:17,42.805,6.029,CST-1368DR,6477,9080,15192,0.110,551
2020-04-12T09:56:19,42.805,6.029,CST-1368DR,6477,9079,15192,0.110,551
2020-04-12T09:59:20,42.805,6.029,CST-1368DR,6477,9079,15192,0.110,551
2020-04-12T10:02:22,42.805,6.029,CST-1368DR,6477,9079,15192,0.110,550
2020-04-12T10:05:24,42.805,6.029,CST-1368DR,6477,9079,15192,0.110,551
2020-04-12T10:08:26,42.805,6.029,CST-1368DR,6477,9078,15189,0.111,551
2020-04-12T10:11:27,42.805,6.029,CST-1368DR,6477,9080,15192,0.110,551
2020-04-12T10:14:29,42.805,6.029,CST-1368DR,6477,9080,15192,0.110,551
2020-04-12T10:17:31,42.805,6.029,CST-1368DR,6477,9078,15189,0.111,551
2020-04-12T10:20:32,42.805,6.029,CST-1368DR,6477,9077,15189,0.111,551
2020-04-12T10:23:34,42.805,6.029,CST-1368DR,6477,9078,15189,0.111,551
2020-04-12T10:26:36,42.805,6.029,CST-1368DR,6477,9079,15191,0.110,551
2020-04-12T10:29:38,42.805,6.029,CST-1368DR,6477,9079,15192,0.110,551
2020-04-12T10:32:39,42.805,6.029,CST-1368DR,6477,9079,15192,0.110,551
2020-04-12T10:35:41,42.805,6.029,CST-1368DR,6477,9079,15191,0.110,551
2020-04-12T10:38:43,42.805,6.029,CST-1368DR,6477,9079,15192,0.110,551
2020-04-12T10:41:45,42.805,6.029,CST-1368DR,6477,9078,15189,0.111,551
2020-04-12T10:44:46,42.805,6.029,CST-1368DR,6477,9079,15192,0.110,551
2020-04-12T10:47:48,42.805,6.029,CST-1368DR,6477,9078,15189,0.111,551
2020-04-12T10:50:50,42.805,6.029,CST-1368DR,6477,9079,15192,0.110,551
2020-04-12T10:53:51,42.805,6.029,CST-1368DR,6477,9079,15192,0.110,551
2020-04-12T10:56:53,42.805,6.029,CST-1368DR,6477,9078,15189,0.111,551
2020-04-12T10:59:55,42.805,6.029,CST-1368DR,6477,9079,15191,0.110,551
2020-04-12T11:02:56,42.805,6.029,CST-1368DR,6477,9079,15192,0.110,551
2020-04-12T11:05:58,42.805,6.029,CST-1368DR,6477,9078,15189,0.111,551
2020-04-12T11:09:00,42.805,6.029,CST-1368DR,6477,9080,15192,0.110,551
2020-04-12T11:12:01,42.805,6.029,CST-1368DR,6477,9079,15191,0.110,551
2020-04-12T11:15:03,42.805,6.029,CST-1368DR,6477,9079,15191,0.110,551
2020-04-12T11:18:05,42.805,6.029,CST-1368DR,6477,9080,15192,0.110,551
2020-04-12T11:21:07,42.805,6.029,CST-1368DR,6477,9079,15192,0.110,551
2020-04-12T11:24:08,42.805,6.029,CST-1368DR,6477,9079,15191,0.110,551
2020-04-12T11:27:10,42.805,6.029,CST-1368DR,6477,9079,15192,0.110,551
2020-04-12T11:30:12,42.805,6.029,CST-1368DR,6477,9078,15189,0.111,551
2020-04-12T11:33:13,42.805,6.029,CST-1368DR,6477,9079,15191,0.110,551
2020-04-12T11:36:15,42.805,6.029,CST-1368DR,6477,9078,15190,0.111,551
2020-04-12T11:39:17,42.805,6.029,CST-1368DR,6477,9079,15191,0.110,551
2020-04-12T11:42:19,42.805,6.029,CST-1368DR,6477,9077,15188,0.111,551
2020-04-12T11:45:20,42.805,6.029,CST-1368DR,6477,9078,15189,0.111,551
2020-04-12T11:48:22,42.805,6.029,CST-1368DR,6477,9079,15191,0.110,551
2020-04-12T11:51:24,42.805,6.029,CST-1368DR,6477,9077,15189,0.111,551
2020-04-12T11:54:25,42.805,6.029,CST-1368DR,6477,9077,15188,0.111,551
2020-04-12T11:57:27,42.805,6.029,CST-1368DR,6477,9079,15192,0.110,551
2020-04-12T12:00:29,42.805,6.029,CST-1368DR,6477,9077,15189,0.111,551
2020-04-12T12:03:30,42.805,6.029,CST-1368DR,6477,9079,15191,0.110,551
2020-04-12T12:06:32,42.805,6.029,CST-1368DR,6477,9079,15191,0.110,551
2020-04-12T12:09:34,42.805,6.029,CST-1368DR,6477,9079,15192,0.110,551
2020-04-12T12:12:35,42.805,6.029,CST-1368DR,6477,9078,15189,0.111,551
2020-04-12T12:15:37,42.805,6.029,CST-1368DR,6477,9079,15192,0.110,550
2020-04-12T12:18:39,42.805,6.029,CST-1368DR,6477,9079,15192,0.110,551
2020-04-12T12:21:41,42.805,6.029,CST-1368DR,6477,9077,15188,0.111,551
2020-04-12T12:24:43,42.805,6.029,CST-1368DR,6477,9079,15192,0.110,551
2020-04-12T12:27:44,42.805,6.029,CST-1368DR,6477,9078,15189,0.111,551
2020-04-12T12:30:46,42.805,6.029,CST-1368DR,6477,9079,15191,0.110,551
2020-04-12T12:33:48,42.805,6.029,CST-1368DR,6477,9077,15189,0.111,551
2020-04-12T12:36:49,42.805,6.029,CST-1368DR,6477,9077,15188,0.111,551
2020-04-12T12:39:51,42.805,6.029,CST-1368DR,6477,9079,15192,0.110,551
2020-04-12T12:42:53,42.805,6.029,CST-1368DR,6477,9079,15191,0.110,551
2020-04-12T12:45:55,42.805,6.029,CST-1368DR,6477,9076,15186,0.112,551
2020-04-12T12:48:56,42.805,6.029,CST-1368DR,6477,9078,15189,0.111,551
2020-04-12T12:51:58,42.805,6.029,CST-1368DR,6477,9076,15187,0.111,551
2020-04-12T12:55:00,42.805,6.029,CST-1368DR,6477,9078,15189,0.111,551
2020-04-12T12:58:01,42.805,6.029,CST-1368DR,6477,9079,15191,0.110,551
2020-04-12T13:01:03,42.805,6.029,CST-1368DR,6477,9079,15191,0.110,551
2020-04-12T13:04:05,42.805,6.029,CST-1368DR,6477,9078,15190,0.111,551
2020-04-12T13:07:06,42.805,6.029,CST-1368DR,6477,9079,15191,0.110,551
2020-04-12T13:10:08,42.805,6.029,CST-1368DR,6477,9079,15191,0.110,551
2020-04-12T13:13:10,42.805,6.029,CST-1368DR,6477,9078,15190,0.111,551
2020-04-12T13:16:11,42.805,6.029,CST-1368DR,6477,9079,15191,0.110,551
2020-04-12T13:19:13,42.805,6.029,CST-1368DR,6477,9079,15191,0.110,551
2020-04-12T13:22:15,42.805,6.029,CST-1368DR,6477,9079,15191,0.110,551
2020-04-12T13:25:16,42.805,6.029,CST-1368DR,6477,9079,15192,0.110,551
2020-04-12T13:28:18,42.805,6.029,CST-1368DR,6477,9079,15191,0.110,551
2020-04-12T13:31:20,42.805,6.029,CST-1368DR,6477,9079,15191,0.110,551
2020-04-12T13:34:22,42.805,6.029,CST-1368DR,6477,9078,15189,0.111,551
2020-04-12T13:37:23,42.805,6.029,CST-1368DR,6477,9079,15191,0.110,551
2020-04-12T13:40:25,42.805,6.029,CST-1368DR,6477,9078,15190,0.111,551
2020-04-12T13:43:27,42.805,6.029,CST-1368DR,6477,9077,15188,0.111,551
2020-04-12T13:46:28,42.805,6.029,CST-1368DR,6477,9079,15191,0.110,551
2020-04-12T13:49:30,42.805,6.029,CST-1368DR,6477,9078,15190,0.111,551
2020-04-12T13:52:32,42.805,6.029,CST-1368DR,6477,9079,15191,0.110,551
2020-04-12T13:55:34,42.805,6.029,CST-1368DR,6477,9078,15190,0.111,551
2020-04-12T13:58:35,42.805,6.029,CST-1368DR,6477,9078,15190,0.111,551
2020-04-12T14:01:37,42.805,6.029,CST-1368DR,6477,9079,15191,0.110,551
2020-04-12T14:04:39,42.805,6.029,CST-1368DR,6477,9079,15191,0.110,551
2020-04-12T14:07:40,42.805,6.029,CST-1368DR,6477,9078,15189,0.111,550
2020-04-12T14:10:42,42.805,6.029,CST-1368DR,6477,9079,15191,0.110,551
2020-04-12T14:13:44,42.805,6.029,CST-1368DR,6477,9079,15191,0.110,551
2020-04-12T14:16:46,42.805,6.029,CST-1368DR,6477,9079,15192,0.110,551
2020-04-12T14:19:47,42.805,6.029,CST-1368DR,6477,9079,15192,0.110,551
2020-04-12T14:22:49,42.805,6.029,CST-1368DR,6477,9078,15190,0.111,551
2020-04-12T14:25:51,42.805,6.029,CST-1368DR,6477,9079,15191,0.110,551
2020-04-12T14:28:52,42.805,6.029,CST-1368DR,6477,9077,15187,0.111,551
2020-04-12T14:31:54,42.805,6.029,CST-1368DR,6477,9079,15191,0.110,551
2020-04-12T14:34:56,42.805,6.029,CST-1368DR,6477,9079,15191,0.110,551
2020-04-12T14:37:57,42.805,6.029,CST-1368DR,6477,9077,15189,0.111,551
2020-04-12T14:40:59,42.805,6.029,CST-1368DR,6477,9078,15189,0.111,551
2020-04-12T14:44:01,42.805,6.029,CST-1368DR,6477,9077,15189,0.111,551
2020-04-12T14:47:03,42.805,6.029,CST-1368DR,6476,9079,15193,0.110,551
2020-04-12T14:50:04,42.805,6.029,CST-1368DR,6476,9078,15191,0.110,551
2020-04-12T14:53:06,42.805,6.029,CST-1368DR,6477,9078,15190,0.111,551
2020-04-12T14:56:08,42.805,6.029,CST-1368DR,6476,9079,15194,0.110,551
2020-04-12T14:59:09,42.805,6.029,CST-1368DR,6476,9078,15192,0.110,551
2020-04-12T15:02:11,42.805,6.029,CST-1368DR,6476,9078,15192,0.110,551
2020-04-12T15:05:13,42.805,6.029,CST-1368DR,6476,9079,15193,0.110,551
2020-04-12T15:08:14,42.805,6.029,CST-1368DR,6476,9079,15193,0.110,551
2020-04-12T15:11:16,42.805,6.029,CST-1368DR,6477,9079,15192,0.110,551
2020-04-12T15:14:18,42.805,6.029,CST-1368DR,6476,9079,15193,0.110,551
2020-04-12T15:17:20,42.805,6.029,CST-1368DR,6476,9078,15193,0.110,551
2020-04-12T15:20:21,42.805,6.029,CST-1368DR,6476,9078,15192,0.110,550
2020-04-12T15:23:23,42.805,6.029,CST-1368DR,6476,9079,15193,0.110,551
2020-04-12T15:26:25,42.805,6.029,CST-1368DR,6476,9078,15192,0.110,551
2020-04-12T15:29:26,42.805,6.029,CST-1368DR,6476,9079,15193,0.110,551
2020-04-12T15:32:28,42.805,6.029,CST-1368DR,6476,9078,15192,0.110,551
2020-04-12T15:35:30,42.805,6.029,CST-1368DR,6476,9078,15191,0.110,551
2020-04-12T15:38:32,42.805,6.029,CST-1368DR,6476,9079,15194,0.110,551
2020-04-12T15:41:33,42.805,6.029,CST-1368DR,6476,9078,15193,0.110,551
2020-04-12T15:44:35,42.805,6.029,CST-1368DR,6476,9077,15190,0.111,551
2020-04-12T15:47:37,42.805,6.029,CST-1368DR,6476,9078,15192,0.110,551
2020-04-12T15:50:38,42.805,6.029,CST-1368DR,6476,9077,15191,0.110,551
2020-04-12T15:53:40,42.805,6.029,CST-1368DR,6476,9077,15191,0.110,551
2020-04-12T15:56:42,42.805,6.029,CST-1368DR,6476,9078,15191,0.110,551
2020-04-12T15:59:44,42.805,6.029,CST-1368DR,6476,9077,15190,0.111,551
2020-04-12T16:02:45,42.805,6.029,CST-1368DR,6476,9078,15193,0.110,551
2020-04-12T16:05:47,42.805,6.029,CST-1368DR,6476,9077,15190,0.111,551
2020-04-12T16:08:49,42.805,6.029,CST-1368DR,6476,9078,15193,0.110,551
2020-04-12T16:11:50,42.805,6.029,CST-1368DR,6476,9078,15193,0.110,551
2020-04-12T16:14:52,42.805,6.029,CST-1368DR,6476,9077,15190,0.111,551
2020-04-12T16:17:54,42.805,6.029,CST-1368DR,6476,9078,15193,0.110,551
2020-04-12T16:20:56,42.805,6.029,CST-1368DR,6476,9078,15192,0.110,551
2020-04-12T16:23:57,42.805,6.029,CST-1368DR,6476,9078,15191,0.110,551
2020-04-12T16:26:59,42.805,6.029,CST-1368DR,6476,9079,15193,0.110,551
2020-04-12T16:30:01,42.805,6.029,CST-1368DR,6476,9077,15191,0.110,551
2020-04-12T16:33:02,42.805,6.029,CST-1368DR,6476,9079,15193,0.110,551
2020-04-12T16:36:04,42.805,6.029,CST-1368DR,6476,9079,15194,0.110,551
2020-04-12T16:39:06,42.805,6.029,CST-1368DR,6476,9077,15191,0.110,551
2020-04-12T16:42:08,42.805,6.029,CST-1368DR,6476,9078,15193,0.110,551
2020-04-12T16:45:09,42.805,6.029,CST-1368DR,6476,9077,15190,0.111,551
2020-04-12T16:48:11,42.805,6.029,CST-1368DR,6476,9078,15191,0.110,551
2020-04-12T16:51:13,42.805,6.029,CST-1368DR,6476,9078,15193,0.110,551
2020-04-12T16:54:14,42.805,6.029,CST-1368DR,6476,9079,15193,0.110,551